Preview of NWS' New Version of Forecast
This preview is not operational and should not be used for support decisions.

Regional Weather Roundup (RWR)

Issued by National Weather Service (NWS)

                            
000
ASUS46 KSEW 212310
RWRWA 

WASHINGTON REGIONAL WEATHER ROUNDUP
NATIONAL WEATHER SERVICE SEATTLE WA
400 PM PDT SUN JUL 21 2019

NOTE:"FAIR" INDICATES FEW OR NO CLOUDS BELOW 12,000 FEET WITH NO 
SIGNIFICANT WEATHER AND/OR OBSTRUCTIONS TO VISIBILITY.

WAZ507-509-555>559-220000-
SEATTLE, TACOMA, EVERETT, AND VICINITY
  
CITY           SKY/WX    TMP DP  RH WIND       PRES   REMARKS
EVERETT        SUNNY     79  51  37 N8        29.97F                  
BOEING FIELD   SUNNY     88  43  20 N6        29.92F                  
RENTON         SUNNY     89  46  22 N7        29.91F                  
SEATAC AIRPORT SUNNY     90  41  18 NW7       29.94F                  
JBLM-MCCHORD   SUNNY     88  52  28 NE5       29.93F                  
PUYALLUP       FAIR      88  37  16 VRB5      29.95F                  
BREMERTON      SUNNY     88  48  25 VRB7      29.94F                  
JBLM-FT LEWIS  SUNNY     88  54  30 SW7       29.93F                  
TACOMA NARROWS SUNNY     86  44  23 SW8       29.93F                  
$$
 
WAZ001-503-506-510-514-515-220000-
NORTH INTERIOR
  
CITY           SKY/WX    TMP DP  RH WIND       PRES   REMARKS
BELLINGHAM     SUNNY     82  56  40 W8        29.96F                  
FRIDAY HARBOR  SUNNY     76  51  41 SW8       29.98F                  
EASTSOUND      SUNNY     75  61  60 NW6       29.96F                  
PORT ANGELES   SUNNY     70  49  47 NW8       30.00F                  
EDIZ HOOK      FAIR      63  53  69 W14G21    29.99S                  
PORT TOWNSEND  FAIR      77  48  36 NW10G17   29.96F                  
NAS WHIDBEY    MOSUNNY   68  51  54 W7        30.01F                  
ARLINGTON        N/A     87  52  29 NW13      29.94F                  
BURLINGTON     SUNNY     86  55  35 W9        29.95F                  
$$
 
WAZ020-022-039-040-504-511-512-220000-
SOUTHWEST INTERIOR
  
CITY           SKY/WX    TMP DP  RH WIND       PRES   REMARKS
SHELTON        SUNNY     89  46  22 W8        29.91F                  
OLYMPIA        SUNNY     88  43  20 VRB3      29.93F                  
CHEHALIS       FAIR      88  48  25 NE6       29.93F                  
KELSO          SUNNY     84  59  42 W12       29.94F                  
VANCOUVER      SUNNY     86  47  25 CALM      29.91F                  
SCAPPOOSE, OR  SUNNY     88  57  34 E7        29.90F                  
PORTLAND, OR   MOSUNNY   87  48  25 N5        29.91F                  
$$
 
WAZ021-516-517-220000-
WASHINGTON COAST
  
CITY           SKY/WX    TMP DP  RH WIND       PRES   REMARKS
FORKS          SUNNY     71  51  49 W12       30.01S                  
HOQUIAM        SUNNY     72  52  49 W14       30.00S                  
ASTORIA, OR    SUNNY     69  56  62 NW14      30.01F                  
$$
 
WAZ019-023-024-040-567>569-220000-
CASCADE MOUNTAINS AND COLUMBIA GORGE
  
CITY           SKY/WX    TMP DP  RH WIND       PRES   REMARKS
STAMPEDE PASS  SUNNY     78  41  26 VRB5      30.10F                  
TROUTDALE, OR  SUNNY     88  50  27 NW6       29.90F                  
HOOD RIVER, OR CLEAR     91  41  17 NE3       29.90F                  
THE DALLES, OR SUNNY     94  40  15 E7        29.87F HX  90           
$$

WAZ026-027-041>044-520-521-220000-
EAST SLOPES
  
CITY           SKY/WX    TMP DP  RH WIND       PRES   REMARKS
OMAK           SUNNY     88  40  18 S9        29.99F                  
WENATCHEE      SUNNY     87  38  17 SW10      29.96F                  
ELLENSBURG     SUNNY     90  39  16 S8G16     30.00F                  
YAKIMA         SUNNY     89  41  18 S7        29.96F                  
SUNNYSIDE ARPT CLEAR     89  47  24 CALM      29.94                   
YAKIMA TC      FAIR      88  36  15 E6        29.95F                  
$$

WAZ028-034-035-220000-
COLUMBIA BASIN
  
CITY           SKY/WX    TMP DP  RH WIND       PRES   REMARKS
EPHRATA        SUNNY     90  31  12 CALM      29.96F                  
MOSES LAKE     SUNNY     92  37  14 SE8       29.97F                  
PASCO          SUNNY     93  46  19 NW9       29.91F                  
RICHLAND ARPT  CLEAR     94  33  11 N7        29.91                   
HERMISTON, OR  SUNNY     93  41  16 NE12      29.90F                  
$$

WAZ036>038-220000-
NORTHEAST WASHINGTON
  
CITY           SKY/WX    TMP DP  RH WIND       PRES   REMARKS
SPOKANE GEIGER MOSUNNY   85  36  17 VRB3      30.04F                  
SPOKANE FELTS  SUNNY     88  33  14 SE6       30.02F                  
FAIRCHILD AFB  SUNNY     83  35  18 E5        30.05F                  
COEURDALENE,ID SUNNY     85  41  21 CALM      30.04F                  
DEER PARK      SUNNY     85  37  18 VRB6      30.04F                  
$$

WAZ029>033-220000-
SOUTHEAST WASHINGTON
  
CITY           SKY/WX    TMP DP  RH WIND       PRES   REMARKS
PULLMAN        SUNNY     85  34  16 VRB7      30.05F                  
LEWISTON, ID   SUNNY     92  33  12 VRB6      29.96F                  
WALLA WALLA    SUNNY     94  30  10 VRB5      29.93F                  
PENDLETON, OR  SUNNY     91  34  13 N12G21    29.93F                  
$$